Zurück zum Katalog

NOAA 17 DEB

AktivPO
NORAD 48175·DEBRIS·🇺🇸 United States

Gestartet Jun 24, 2002 von Vandenberg Space Force Base

Loading…

Nächste Überflüge (nächste 24 Stunden)

TLE

AktuellSource: Space-Track

Epoche: Sep 14, 2026, 04:26 UTC

1 48175U 02032Q   26257.18509815  .00006503  00000-0  13685-2 0  9990
2 48175  98.7399 245.3536 0017618   8.1290 352.0191 14.59785377287827

Verfolge NOAA 17 DEB in Echtzeit mit AllMySat

Download on the App Store